Flag for Germany Weather past 2 weeks in Brandenburg an der Havel, Brandenburg, Germany

Now
51 °F

Partly sunny.


Feels Like: 50 °F
Forecast: 46 / 69 °F
Wind: 3 mph from Southwest

Location: Potsdam

Current Time: Aug 21, 2014 at 8:33:56 AM

Latest Report: Aug 21, 2014 at 8:00 AM


Visibility: 22 mi

Pressure: 30.00 "Hg

Humidity: 89%

Dew point: 47 °F

Location of Brandenburg an der HavelLocation

Historic Weather in Brandenburg an der Havel — Graph

°F

Brandenburg an der Havel temperature yesterday

Maximum temperature yesterday: 66 °F (at 4:00 PM)
Minimum temperature yesterday: 48 °F (at 6:00 AM)
Average temperature yesterday: 56 °F

Past Weeks' High & Low Weather Summary

 TemperatureHumidityPressure
High83 °F (Aug 10, 5:00 PM)99% (Aug 8, 6:00 AM)30.07 "Hg (Aug 8, 6:00 AM)
Low47 °F (Aug 21, 6:00 AM)37% (Aug 8, 5:00 PM)29.61 "Hg (Aug 18, 3:00 PM)
Average63 °F75%29.86 "Hg
* Reported Aug 6 7:00 AM — Aug 21 7:00 AM, Brandenburg an der Havel, Weather by CustomWeather, © 2014

Note: Actual official high and low records may vary slightly from our data, if they occured in-between our weather recording intervals... More about our weather records

Advertising

Brandenburg an der Havel weather history for previous 24 hours

 ConditionsComfort  
Time TempWeatherWind HumidityBarometerVisibility
7:00 AM
Aug 21
47 °FScattered clouds.5 mph92%30.00 "Hg22 mi
6:00 AM47 °FScattered clouds.5 mph94%29.99 "Hg22 mi
5:00 AM48 °FClear.5 mph90%29.99 "Hg22 mi
4:00 AM50 °FPassing clouds.5 mph87%29.99 "Hg25 mi
3:00 AM50 °FPassing clouds.5 mph86%30.00 "Hg25 mi
2:00 AM50 °FPassing clouds.5 mph85%30.00 "Hg25 mi
1:00 AM50 °FPassing clouds.3 mph87%30.00 "Hg25 mi
12:00 AM51 °FPassing clouds.3 mph89%29.99 "Hg25 mi
11:00 PM
Aug 20
52 °FPassing clouds.5 mph85%29.99 "Hg25 mi
10:00 PM53 °FPassing clouds.2 mph79%29.99 "Hg25 mi
9:00 PM58 °FPassing clouds.5 mph66%29.97 "Hg28 mi
8:00 PM60 °FPartly sunny.6 mph60%29.95 "Hg28 mi
7:00 PM63 °FPartly sunny.6 mph54%29.95 "Hg28 mi
6:00 PM65 °FPartly sunny.3 mph51%29.95 "Hg28 mi
5:00 PM65 °FScattered clouds.7 mph49%29.95 "Hg28 mi
4:00 PM66 °FScattered clouds.7 mph52%29.95 "Hg28 mi
3:00 PM64 °FPartly sunny.6 mph54%29.95 "Hg25 mi
2:00 PM63 °FPartly sunny.7 mph60%29.95 "Hg25 mi
1:00 PM59 °FPartly sunny.7 mph69%29.95 "Hg25 mi
12:00 PM61 °FScattered clouds.8 mph65%29.95 "Hg22 mi
11:00 AM57 °FScattered clouds.7 mph70%29.95 "Hg22 mi
10:00 AM54 °FPartly sunny.7 mph81%29.94 "Hg22 mi
9:00 AM52 °FOvercast.9 mph85%29.93 "Hg22 mi
8:00 AM51 °FOvercast.7 mph90%29.91 "Hg19 mi
Weather by CustomWeather, © 2014

See weather overviewHow to use our weather pages